DW8313 Weather Reports


Display with metric or nautical units.
time (UTC)temp
F
wind
direction
speed
MPH
gust
MPH
rain 1hr
in
rain 24hr
in
rain mn
in
humidity
%
barometer
mb
20260904160224 67 277 0.0 1.0 0.00 0.00 0.00 45 1010.9
20260904160004 67 278 0.0 1.0 0.00 0.00 0.00 45 1010.9
20260904155804 66 280 0.0 1.0 0.00 0.00 0.00 44 1010.9
20260904155603 66 280 0.0 1.0 0.00 0.00 0.00 44 1010.9
20260904155403 66 280 0.0 1.0 0.00 0.00 0.00 43 1010.9
20260904155203 66 280 0.0 1.0 0.00 0.00 0.00 43 1010.9
20260904155004 66 263 0.0 1.0 0.00 0.00 0.00 42 1010.9
20260904154803 66 263 0.0 1.0 0.00 0.00 0.00 41 1010.9
20260904154603 66 263 0.0 1.0 0.00 0.00 0.00 42 1010.9
20260904154403 66 263 0.0 1.0 0.00 0.00 0.00 40 1010.9
20260904154204 66 263 0.0 1.0 0.00 0.00 0.00 40 1010.9
20260904154003 66 0 0.0 0.0 0.00 0.00 0.00 40 1010.9
20260904153804 65 0 0.0 0.0 0.00 0.00 0.00 39 1010.9
20260904153624 65 285 0.0 1.0 0.00 0.00 0.00 38 1011.0
20260904153425 65 285 0.0 1.0 0.00 0.00 0.00 38 1011.0
20260904153225 65 285 0.0 1.0 0.00 0.00 0.00 38 1011.0
20260904153003 65 285 0.0 1.0 0.00 0.00 0.00 38 1011.0
20260904152804 65 285 0.0 1.0 0.00 0.00 0.00 38 1011.0
20260904152604 65 0 0.0 0.0 0.00 0.00 0.00 41 1010.9
20260904152404 66 216 0.0 1.0 0.00 0.00 0.00 41 1011.0
20260904152203 66 216 0.0 1.0 0.00 0.00 0.00 40 1010.9
20260904152004 66 216 0.0 1.0 0.00 0.00 0.00 40 1011.0
20260904151803 66 216 0.0 1.0 0.00 0.00 0.00 39 1011.0
20260904151604 66 216 0.0 1.0 0.00 0.00 0.00 40 1010.9
20260904151404 66 0 0.0 0.0 0.00 0.00 0.00 39 1010.9
20260904151204 67 0 0.0 0.0 0.00 0.00 0.00 39 1010.9
20260904151004 67 0 0.0 0.0 0.00 0.00 0.00 37 1010.9
20260904150804 67 0 0.0 0.0 0.00 0.00 0.00 34 1011.0
20260904150604 68 0 0.0 0.0 0.00 0.00 0.00 32 1011.0
20260904150403 67 0 0.0 0.0 0.00 0.00 0.00 30 1010.9
20260904150205 67 0 0.0 0.0 0.00 0.00 0.00 32 1010.9
20260904150004 66 0 0.0 0.0 0.00 0.00 0.00 33 1010.9
20260904145804 66 0 0.0 0.0 0.00 0.00 0.00 35 1010.9
20260904145625 66 0 0.0 0.0 0.00 0.00 0.00 36 1010.9
20260904145403 65 0 0.0 0.0 0.00 0.00 0.00 35 1010.9
20260904145203 64 98 0.0 1.0 0.00 0.00 0.00 36 1010.8
20260904145003 64 96 0.0 1.0 0.00 0.00 0.00 36 1010.8
20260904144803 64 96 0.0 1.0 0.00 0.00 0.00 36 1010.8
20260904144624 63 96 0.0 1.0 0.00 0.00 0.00 36 1010.8
20260904144404 63 96 0.0 1.0 0.00 0.00 0.00 37 1010.7
20260904144203 63 71 0.0 1.0 0.00 0.00 0.00 37 1010.7
20260904144025 62 0 0.0 0.0 0.00 0.00 0.00 39 1010.7
20260904143804 62 0 0.0 0.0 0.00 0.00 0.00 40 1010.8
20260904143625 62 0 0.0 0.0 0.00 0.00 0.00 42 1010.7
20260904143424 62 0 0.0 0.0 0.00 0.00 0.00 43 1010.7
20260904143204 62 0 0.0 0.0 0.00 0.00 0.00 44 1010.8
20260904143004 62 0 0.0 0.0 0.00 0.00 0.00 44 1010.7
20260904142804 61 0 0.0 0.0 0.00 0.00 0.00 45 1010.7
20260904142603 61 0 0.0 0.0 0.00 0.00 0.00 44 1010.7
20260904142425 61 87 0.0 1.0 0.00 0.00 0.00 43 1010.7
20260904142203 60 89 0.0 2.0 0.00 0.00 0.00 42 1010.8
20260904142004 60 90 1.0 2.0 0.00 0.00 0.00 42 1010.8
20260904141825 60 90 1.0 2.0 0.00 0.00 0.00 42 1010.7
20260904141624 59 89 1.0 2.0 0.00 0.00 0.00 42 1010.7
20260904141404 59 88 1.0 3.0 0.00 0.00 0.00 41 1010.7
20260904141204 59 87 2.0 3.0 0.00 0.00 0.00 41 1010.7
20260904141003 58 87 1.0 3.0 0.00 0.00 0.00 41 1010.7
20260904140803 58 86 1.0 3.0 0.00 0.00 0.00 41 1010.6
20260904140604 58 86 1.0 3.0 0.00 0.00 0.00 41 1010.7
20260904140403 58 87 1.0 2.0 0.00 0.00 0.00 41 1010.7
20260904140203 58 87 1.0 2.0 0.00 0.00 0.00 41 1010.6
20260904140004 58 88 1.0 2.0 0.00 0.00 0.00 41 1010.6
20260904135803 58 88 0.0 2.0 0.00 0.00 0.00 40 1010.6
20260904135604 58 90 0.0 2.0 0.00 0.00 0.00 41 1010.6
20260904135403 58 0 0.0 0.0 0.00 0.00 0.00 43 1010.6
20260904135203 58 0 0.0 0.0 0.00 0.00 0.00 43 1010.6
20260904135004 58 0 0.0 0.0 0.00 0.00 0.00 43 1010.6
20260904134803 58 0 0.0 0.0 0.00 0.00 0.00 44 1010.6
20260904134603 58 0 0.0 0.0 0.00 0.00 0.00 44 1010.6
20260904134425 58 97 0.0 1.0 0.00 0.00 0.00 45 1010.6
20260904134204 58 95 0.0 1.0 0.00 0.00 0.00 44 1010.5
20260904134003 57 91 0.0 2.0 0.00 0.00 0.00 43 1010.5
20260904133804 57 88 1.0 2.0 0.00 0.00 0.00 42 1010.4
20260904133624 57 87 1.0 3.0 0.00 0.00 0.00 42 1010.5
20260904133403 56 85 1.0 3.0 0.00 0.00 0.00 42 1010.5
20260904133204 56 84 1.0 3.0 0.00 0.00 0.00 42 1010.4
20260904133003 57 84 1.0 3.0 0.00 0.00 0.00 42 1010.4
20260904132803 57 84 1.0 3.0 0.00 0.00 0.00 41 1010.4
20260904132625 57 84 1.0 3.0 0.00 0.00 0.00 42 1010.4
20260904132403 57 84 1.0 3.0 0.00 0.00 0.00 43 1010.4
20260904132203 57 84 1.0 3.0 0.00 0.00 0.00 44 1010.4
20260904132004 57 83 1.0 3.0 0.00 0.00 0.00 43 1010.4
20260904131804 57 85 1.0 3.0 0.00 0.00 0.00 42 1010.4
20260904131603 57 86 0.0 2.0 0.00 0.00 0.00 42 1010.4
20260904131403 57 88 0.0 2.0 0.00 0.00 0.00 43 1010.4
20260904131224 57 90 0.0 2.0 0.00 0.00 0.00 43 1010.4
20260904131003 57 90 0.0 2.0 0.00 0.00 0.00 43 1010.4
20260904130824 57 79 0.0 1.0 0.00 0.00 0.00 44 1010.4
20260904130604 57 92 0.0 2.0 0.00 0.00 0.00 45 1010.4
20260904130404 57 90 0.0 3.0 0.00 0.00 0.00 46 1010.4
20260904130203 57 90 0.0 3.0 0.00 0.00 0.00 47 1010.4
20260904130003 57 90 0.0 3.0 0.00 0.00 0.00 48 1010.4
20260904125803 56 89 0.0 3.0 0.00 0.00 0.00 47 1010.3
20260904125603 56 86 0.0 3.0 0.00 0.00 0.00 47 1010.4
20260904125425 56 0 0.0 0.0 0.00 0.00 0.00 46 1010.4
20260904125203 57 0 0.0 0.0 0.00 0.00 0.00 47 1010.4
20260904125004 57 0 0.0 0.0 0.00 0.00 0.00 48 1010.4
20260904124804 57 0 0.0 0.0 0.00 0.00 0.00 49 1010.4
20260904124603 57 0 0.0 0.0 0.00 0.00 0.00 49 1010.4
20260904124403 57 0 0.0 0.0 0.00 0.00 0.00 51 1010.4
20260904124204 57 0 0.0 0.0 0.00 0.00 0.00 51 1010.4
20260904124003 57 0 0.0 0.0 0.00 0.00 0.00 51 1010.4
20260904123825 57 0 0.0 0.0 0.00 0.00 0.00 51 1010.4
20260904123604 57 0 0.0 0.0 0.00 0.00 0.00 51 1010.4
20260904123424 57 0 0.0 0.0 0.00 0.00 0.00 49 1010.4
20260904123204 57 0 0.0 0.0 0.00 0.00 0.00 47 1010.3
20260904123004 57 89 0.0 1.0 0.00 0.00 0.00 46 1010.3
20260904122804 57 96 0.0 2.0 0.00 0.00 0.00 49 1010.4
20260904122603 57 96 0.0 2.0 0.00 0.00 0.00 48 1010.4
20260904122403 56 96 0.0 2.0 0.00 0.00 0.00 43 1010.4
20260904122204 56 96 0.0 2.0 0.00 0.00 0.00 42 1010.4
20260904122003 56 96 0.0 2.0 0.00 0.00 0.00 40 1010.4
20260904121804 56 0 0.0 0.0 0.00 0.00 0.00 40 1010.3
20260904121603 57 0 0.0 0.0 0.00 0.00 0.00 40 1010.3
20260904121404 57 0 0.0 0.0 0.00 0.00 0.00 38 1010.3
20260904121203 57 0 0.0 0.0 0.00 0.00 0.00 42 1010.3
20260904121003 57 0 0.0 0.0 0.00 0.00 0.00 38 1010.3
20260904120804 57 0 0.0 0.0 0.00 0.00 0.00 41 1010.2
20260904120604 57 0 0.0 0.0 0.00 0.00 0.00 40 1010.2
20260904120403 57 0 0.0 0.0 0.00 0.00 0.00 39 1010.2
20260904120204 57 0 0.0 0.0 0.00 0.00 0.00 35 1010.2
20260904120004 57 0 0.0 0.0 0.00 0.00 0.00 34 1010.2
20260904115824 57 0 0.0 0.0 0.00 0.00 0.00 34 1010.2
20260904115603 58 0 0.0 0.0 0.00 0.00 0.00 34 1010.2
20260904115403 58 0 0.0 0.0 0.00 0.00 0.00 34 1010.2
20260904115204 58 0 0.0 0.0 0.00 0.00 0.00 34 1010.2
20260904115004 58 0 0.0 0.0 0.00 0.00 0.00 32 1010.1
20260904114803 58 0 0.0 0.0 0.00 0.00 0.00 33 1010.2
20260904114624 59 0 0.0 0.0 0.00 0.00 0.00 31 1010.2
20260904114403 59 0 0.0 0.0 0.00 0.00 0.00 30 1010.2
20260904114203 60 0 0.0 0.0 0.00 0.00 0.00 29 1010.2
20260904114003 60 0 0.0 0.0 0.00 0.00 0.00 29 1010.2
20260904113804 60 0 0.0 0.0 0.00 0.00 0.00 28 1010.2
20260904113603 60 0 0.0 0.0 0.00 0.00 0.00 28 1010.2
20260904113403 60 0 0.0 0.0 0.00 0.00 0.00 28 1010.2
20260904113203 60 0 0.0 0.0 0.00 0.00 0.00 28 1010.2
20260904113003 60 0 0.0 0.0 0.00 0.00 0.00 29 1010.1
20260904112804 60 0 0.0 0.0 0.00 0.00 0.00 29 1010.1
20260904112604 60 0 0.0 0.0 0.00 0.00 0.00 30 1010.1
20260904112403 60 0 0.0 0.0 0.00 0.00 0.00 31 1010.1
20260904112203 60 0 0.0 0.0 0.00 0.00 0.00 30 1010.1
20260904112004 60 0 0.0 0.0 0.00 0.00 0.00 30 1010.1
20260904111804 60 0 0.0 0.0 0.00 0.00 0.00 31 1010.0
20260904111604 60 86 0.0 1.0 0.00 0.00 0.00 31 1010.0
20260904111403 59 85 0.0 2.0 0.00 0.00 0.00 31 1010.1
20260904111203 60 86 1.0 2.0 0.00 0.00 0.00 31 1010.1
20260904111004 60 86 1.0 2.0 0.00 0.00 0.00 32 1010.1
20260904110824 60 85 1.0 2.0 0.00 0.00 0.00 32 1010.1
20260904110603 60 85 1.0 2.0 0.00 0.00 0.00 32 1010.1
20260904110403 60 85 1.0 2.0 0.00 0.00 0.00 32 1010.1
20260904110203 60 83 0.0 2.0 0.00 0.00 0.00 32 1010.1
20260904110004 59 79 0.0 2.0 0.00 0.00 0.00 32 1010.1
20260904105803 59 0 0.0 0.0 0.00 0.00 0.00 32 1010.1
20260904105603 59 0 0.0 0.0 0.00 0.00 0.00 33 1010.1
20260904105404 59 0 0.0 0.0 0.00 0.00 0.00 33 1010.2
20260904105204 60 0 0.0 0.0 0.00 0.00 0.00 34 1010.2
20260904105024 60 0 0.0 0.0 0.00 0.00 0.00 35 1010.2
20260904104803 60 0 0.0 0.0 0.00 0.00 0.00 35 1010.3
20260904104604 60 0 0.0 0.0 0.00 0.00 0.00 35 1010.2
20260904104424 61 0 0.0 0.0 0.00 0.00 0.00 34 1010.2
20260904104204 61 132 0.0 1.0 0.00 0.00 0.00 34 1010.2
20260904104003 61 135 0.0 2.0 0.00 0.00 0.00 33 1010.2
20260904103804 62 135 0.0 3.0 0.00 0.00 0.00 33 1010.2
20260904103604 62 129 1.0 4.0 0.00 0.00 0.00 34 1010.2
20260904103425 62 127 1.0 4.0 0.00 0.00 0.00 32 1010.2
20260904103203 62 125 1.0 4.0 0.00 0.00 0.00 33 1010.2
20260904103004 62 124 2.0 4.0 0.00 0.00 0.00 33 1010.2
20260904102803 62 122 2.0 4.0 0.00 0.00 0.00 33 1010.2
20260904102604 62 122 2.0 4.0 0.00 0.00 0.00 33 1010.2
20260904102404 62 123 2.0 4.0 0.00 0.00 0.00 34 1010.1
20260904102204 62 123 2.0 4.0 0.00 0.00 0.00 34 1010.1
20260904102004 62 124 1.0 4.0 0.00 0.00 0.00 34 1010.0
20260904101803 61 123 1.0 4.0 0.00 0.00 0.00 34 1010.0
20260904101603 61 124 1.0 2.0 0.00 0.00 0.00 36 1010.0
20260904101404 60 123 0.0 2.0 0.00 0.00 0.00 37 1010.0
20260904101203 60 130 0.0 2.0 0.00 0.00 0.00 38 1010.0
20260904101004 60 124 0.0 1.0 0.00 0.00 0.00 40 1010.0
20260904100804 59 124 0.0 1.0 0.00 0.00 0.00 40 1010.0
20260904100604 59 124 0.0 1.0 0.00 0.00 0.00 42 1010.0
20260904100404 59 0 0.0 0.0 0.00 0.00 0.00 42 1010.0
20260904100204 59 0 0.0 0.0 0.00 0.00 0.00 44 1010.0
20260904100004 59 0 0.0 0.0 0.00 0.00 0.00 45 1010.1
20260904095825 59 0 0.0 0.0 0.00 0.00 0.00 45 1010.0
20260904095603 59 0 0.0 0.0 0.00 0.00 0.00 46 1010.0
20260904095424 59 136 0.0 1.0 0.00 0.00 0.00 47 1010.0
20260904095204 59 136 0.0 1.0 0.00 0.00 0.00 48 1010.1
20260904095003 59 136 0.0 1.0 0.00 0.00 0.00 49 1010.1
20260904094804 58 136 0.0 1.0 0.00 0.00 0.00 49 1010.1
20260904094604 58 136 0.0 1.0 0.00 0.00 0.00 50 1010.0
20260904094425 58 0 0.0 0.0 0.00 0.00 0.00 52 1010.0
20260904094204 58 0 0.0 0.0 0.00 0.00 0.00 53 1010.0
20260904094024 58 0 0.0 0.0 0.00 0.00 0.00 55 1010.0
20260904093803 58 0 0.0 0.0 0.00 0.00 0.00 54 1010.0
20260904093603 59 0 0.0 0.0 0.00 0.00 0.00 55 1009.9
20260904093403 58 0 0.0 0.0 0.00 0.00 0.00 55 1009.9
20260904093225 58 0 0.0 0.0 0.00 0.00 0.00 56 1009.9
20260904093025 58 0 0.0 0.0 0.00 0.00 0.00 59 1010.0
20260904092804 58 0 0.0 0.0 0.00 0.00 0.00 61 1010.0
20260904092624 59 0 0.0 0.0 0.00 0.00 0.00 62 1010.0
20260904092403 59 0 0.0 0.0 0.00 0.00 0.00 62 1009.9
20260904092203 59 0 0.0 0.0 0.00 0.00 0.00 64 1010.0
20260904092003 59 0 0.0 0.0 0.00 0.00 0.00 65 1010.0
20260904091803 58 0 0.0 0.0 0.00 0.00 0.00 65 1010.0
20260904091625 59 0 0.0 0.0 0.00 0.00 0.00 68 1010.0
20260904091403 59 211 0.0 1.0 0.00 0.00 0.00 69 1010.0
20260904091203 59 211 0.0 1.0 0.00 0.00 0.00 72 1010.0
20260904091003 59 211 0.0 1.0 0.00 0.00 0.00 73 1010.1
20260904090804 59 211 0.0 1.0 0.00 0.00 0.00 70 1010.1
20260904090603 59 182 0.0 1.0 0.00 0.00 0.00 71 1010.0
20260904090404 59 179 0.0 2.0 0.00 0.00 0.00 72 1010.1
20260904090204 59 183 0.0 2.0 0.00 0.00 0.00 73 1010.0
20260904090004 59 183 0.0 2.0 0.00 0.00 0.00 73 1010.0
20260904085803 58 183 0.0 2.0 0.00 0.00 0.00 74 1010.0
20260904085603 58 191 0.0 2.0 0.00 0.00 0.00 76 1010.0
20260904085404 58 211 0.0 1.0 0.00 0.00 0.00 79 1010.0
20260904085204 58 0 0.0 0.0 0.00 0.00 0.00 80 1010.0
20260904085003 58 0 0.0 0.0 0.00 0.00 0.00 81 1010.0
20260904084803 58 0 0.0 0.0 0.00 0.00 0.00 82 1010.0
20260904084604 58 0 0.0 0.0 0.00 0.00 0.00 83 1010.0
20260904084403 58 0 0.0 0.0 0.00 0.00 0.00 84 1010.0
20260904084224 58 93 0.0 1.0 0.00 0.00 0.00 85 1010.0
20260904084003 58 93 0.0 2.0 0.00 0.00 0.00 85 1010.1
20260904083804 58 88 0.0 2.0 0.00 0.00 0.00 85 1010.1
20260904083603 58 88 0.0 2.0 0.00 0.00 0.00 85 1010.2
20260904083403 58 88 0.0 2.0 0.00 0.00 0.00 85 1010.2
20260904083224 58 88 0.0 2.0 0.00 0.00 0.00 85 1010.2
20260904083004 58 88 0.0 2.0 0.00 0.00 0.00 85 1010.2
20260904082803 58 88 0.0 2.0 0.00 0.00 0.00 85 1010.3
20260904082603 58 0 0.0 0.0 0.00 0.00 0.00 85 1010.3
20260904082425 58 0 0.0 0.0 0.00 0.00 0.00 85 1010.3
20260904082204 58 0 0.0 0.0 0.00 0.00 0.00 85 1010.3
20260904082004 58 0 0.0 0.0 0.00 0.00 0.00 85 1010.3
20260904081803 58 0 0.0 0.0 0.00 0.00 0.00 85 1010.3
20260904081603 58 0 0.0 0.0 0.00 0.00 0.00 85 1010.4
20260904081403 58 0 0.0 0.0 0.00 0.00 0.00 85 1010.3
20260904081203 58 0 0.0 0.0 0.00 0.00 0.00 84 1010.4
20260904081004 58 0 0.0 0.0 0.00 0.00 0.00 84 1010.4
20260904080824 58 0 0.0 0.0 0.00 0.00 0.00 85 1010.4
20260904080604 58 0 0.0 0.0 0.00 0.00 0.00 84 1010.4
20260904080403 58 0 0.0 0.0 0.00 0.00 0.00 84 1010.4
20260904080204 58 0 0.0 0.0 0.00 0.00 0.00 84 1010.4
20260904080004 58 0 0.0 0.0 0.00 0.00 0.00 84 1010.4
20260904075804 58 0 0.0 0.0 0.00 0.00 0.00 84 1010.4
20260904075624 58 0 0.0 0.0 0.00 0.00 0.00 84 1010.4
20260904075403 58 0 0.0 0.0 0.00 0.00 0.00 84 1010.3
20260904075203 58 0 0.0 0.0 0.00 0.00 0.00 84 1010.3
20260904075003 58 0 0.0 0.0 0.00 0.00 0.00 84 1010.3
20260904074825 58 0 0.0 0.0 0.00 0.00 0.00 84 1010.3
20260904074625 58 0 0.0 0.0 0.00 0.00 0.00 84 1010.3
20260904074403 58 0 0.0 0.0 0.00 0.00 0.00 84 1010.3
20260904074203 58 0 0.0 0.0 0.00 0.00 0.00 84 1010.3
20260904074003 58 0 0.0 0.0 0.00 0.00 0.00 84 1010.3
20260904073803 58 0 0.0 0.0 0.00 0.00 0.00 84 1010.3
20260904073603 58 89 0.0 1.0 0.00 0.00 0.00 84 1010.3
20260904073403 58 89 0.0 1.0 0.00 0.00 0.00 84 1010.2
20260904073203 58 89 0.0 1.0 0.00 0.00 0.00 84 1010.2
20260904073003 58 89 0.0 1.0 0.00 0.00 0.00 84 1010.2
20260904072803 58 86 0.0 2.0 0.00 0.00 0.00 84 1010.2
20260904072603 58 88 0.0 2.0 0.00 0.00 0.00 83 1010.3
20260904072403 58 88 0.0 2.0 0.00 0.00 0.00 83 1010.3
20260904072203 58 88 0.0 2.0 0.00 0.00 0.00 83 1010.2
20260904072004 58 88 0.0 2.0 0.00 0.00 0.00 83 1010.2
20260904071803 59 90 0.0 2.0 0.00 0.00 0.00 83 1010.2
20260904071603 58 0 0.0 0.0 0.00 0.00 0.00 83 1010.2
20260904071424 58 0 0.0 0.0 0.00 0.00 0.00 83 1010.2
20260904071204 58 0 0.0 0.0 0.00 0.00 0.00 83 1010.2
20260904071004 58 0 0.0 0.0 0.00 0.00 0.00 83 1010.1
20260904070804 58 0 0.0 0.0 0.00 0.00 0.00 83 1010.1
20260904070603 58 0 0.0 0.0 0.00 0.00 0.00 83 1010.1
20260904070404 59 0 0.0 0.0 0.00 0.00 0.00 83 1010.1
20260904070224 59 0 0.0 0.0 0.00 0.00 0.00 83 1010.1
20260904070003 59 0 0.0 0.0 0.00 0.00 0.00 83 1010.2
20260904065803 59 0 0.0 0.0 0.00 0.00 0.00 83 1010.2
20260904065603 59 0 0.0 0.0 0.00 0.00 0.00 83 1010.2
20260904065404 59 0 0.0 0.0 0.00 0.00 0.00 83 1010.2
20260904065204 59 0 0.0 0.0 0.00 0.00 0.00 83 1010.2
20260904065004 59 0 0.0 0.0 0.00 0.00 0.00 82 1010.1
20260904064803 59 0 0.0 0.0 0.00 0.00 0.00 82 1010.2
20260904064604 59 0 0.0 0.0 0.00 0.00 0.00 82 1010.1
20260904064403 59 84 0.0 2.0 0.00 0.00 0.00 82 1010.1
20260904064203 59 88 0.0 2.0 0.00 0.00 0.00 82 1010.1
20260904064004 59 88 0.0 2.0 0.00 0.00 0.00 82 1010.1
20260904063824 59 88 0.0 2.0 0.00 0.00 0.00 82 1010.1
20260904063625 59 88 0.0 2.0 0.00 0.00 0.00 82 1010.1
20260904063404 59 93 0.0 2.0 0.00 0.00 0.00 82 1010.1
20260904063203 59 0 0.0 0.0 0.00 0.00 0.00 82 1010.1
20260904063003 59 0 0.0 0.0 0.00 0.00 0.00 82 1010.1
20260904062804 59 0 0.0 0.0 0.00 0.00 0.00 82 1010.1
20260904062603 59 96 0.0 2.0 0.00 0.00 0.00 82 1010.1
20260904062404 59 91 0.0 2.0 0.00 0.00 0.00 82 1010.1
20260904062204 59 91 0.0 2.0 0.00 0.00 0.00 81 1010.1
20260904062003 59 91 0.0 2.0 0.00 0.00 0.00 81 1010.1
20260904061804 59 91 0.0 2.0 0.00 0.00 0.00 81 1010.2
20260904061625 59 90 0.0 2.0 0.00 0.00 0.00 81 1010.2
20260904061425 59 0 0.0 0.0 0.00 0.00 0.00 81 1010.2
20260904061203 59 0 0.0 0.0 0.00 0.00 0.00 81 1010.1
20260904061024 59 0 0.0 0.0 0.00 0.00 0.00 81 1010.3
20260904060804 60 0 0.0 0.0 0.00 0.00 0.00 81 1010.2
20260904060625 60 0 0.0 0.0 0.00 0.00 0.00 81 1010.2
20260904060403 60 0 0.0 0.0 0.00 0.00 0.00 80 1010.2
20260904060225 60 0 0.0 0.0 0.00 0.00 0.00 80 1010.3
20260904060004 60 0 0.0 0.0 0.00 0.00 0.00 80 1010.2
20260904055803 60 0 0.0 0.0 0.00 0.00 0.00 80 1010.3
20260904055603 60 0 0.0 0.0 0.00 0.00 0.00 80 1010.3
20260904055404 60 0 0.0 0.0 0.00 0.00 0.00 80 1010.3
20260904055203 60 0 0.0 0.0 0.00 0.00 0.00 80 1010.3
20260904055003 60 0 0.0 0.0 0.00 0.00 0.00 79 1010.3
20260904054803 60 0 0.0 0.0 0.00 0.00 0.00 79 1010.4
20260904054603 60 0 0.0 0.0 0.00 0.00 0.00 79 1010.3
20260904054424 60 0 0.0 0.0 0.00 0.00 0.00 80 1010.3
20260904054204 60 0 0.0 0.0 0.00 0.00 0.00 79 1010.3
20260904054003 60 0 0.0 0.0 0.00 0.00 0.00 79 1010.3
20260904053824 60 0 0.0 0.0 0.00 0.00 0.00 80 1010.3
20260904053604 60 0 0.0 0.0 0.00 0.00 0.00 80 1010.2
20260904053425 60 0 0.0 0.0 0.00 0.00 0.00 79 1010.3
20260904053203 60 0 0.0 0.0 0.00 0.00 0.00 79 1010.2
20260904053004 60 0 0.0 0.0 0.00 0.00 0.00 79 1010.2
20260904052803 60 0 0.0 0.0 0.00 0.00 0.00 79 1010.2
20260904052625 60 0 0.0 0.0 0.00 0.00 0.00 79 1010.2
20260904052403 60 0 0.0 0.0 0.00 0.00 0.00 79 1010.2
20260904052204 60 0 0.0 0.0 0.00 0.00 0.00 79 1010.2
20260904052004 60 0 0.0 0.0 0.00 0.00 0.00 78 1010.2
20260904051804 60 0 0.0 0.0 0.00 0.00 0.00 78 1010.3
20260904051603 60 0 0.0 0.0 0.00 0.00 0.00 78 1010.3
20260904051403 60 0 0.0 0.0 0.00 0.00 0.00 78 1010.4
20260904051225 60 0 0.0 0.0 0.00 0.00 0.00 78 1010.4
20260904051004 60 0 0.0 0.0 0.00 0.00 0.00 77 1010.4
20260904050804 60 0 0.0 0.0 0.00 0.00 0.00 77 1010.4
20260904050603 60 0 0.0 0.0 0.00 0.00 0.00 77 1010.4
20260904050403 61 0 0.0 0.0 0.00 0.00 0.00 77 1010.4
20260904050203 61 0 0.0 0.0 0.00 0.00 0.00 77 1010.4
20260904050004 61 0 0.0 0.0 0.00 0.00 0.00 77 1010.4
20260904045803 61 0 0.0 0.0 0.00 0.00 0.00 77 1010.5
20260904045603 61 0 0.0 0.0 0.00 0.00 0.00 77 1010.4
20260904045403 61 0 0.0 0.0 0.00 0.00 0.00 77 1010.4
20260904045224 61 0 0.0 0.0 0.00 0.00 0.00 77 1010.4
20260904045024 61 0 0.0 0.0 0.00 0.00 0.00 76 1010.4
20260904044803 61 0 0.0 0.0 0.00 0.00 0.00 76 1010.3
20260904044604 61 0 0.0 0.0 0.00 0.00 0.00 75 1010.4
20260904044424 61 0 0.0 0.0 0.00 0.00 0.00 75 1010.4
20260904044224 61 0 0.0 0.0 0.00 0.00 0.00 76 1010.4
20260904044004 61 0 0.0 0.0 0.00 0.00 0.00 76 1010.4
20260904043804 61 0 0.0 0.0 0.00 0.00 0.00 75 1010.4
20260904043625 62 0 0.0 0.0 0.00 0.00 0.00 75 1010.3
20260904043424 62 0 0.0 0.0 0.00 0.00 0.00 75 1010.3
20260904043204 62 0 0.0 0.0 0.00 0.00 0.00 75 1010.3
20260904043024 62 0 0.0 0.0 0.00 0.00 0.00 74 1010.4
20260904042803 62 0 0.0 0.0 0.00 0.00 0.00 75 1010.3
20260904042603 62 0 0.0 0.0 0.00 0.00 0.00 74 1010.2
20260904042403 62 0 0.0 0.0 0.00 0.00 0.00 73 1010.2
20260904042203 62 0 0.0 0.0 0.00 0.00 0.00 73 1010.2
20260904042003 62 0 0.0 0.0 0.00 0.00 0.00 74 1010.2
20260904041803 62 0 0.0 0.0 0.00 0.00 0.00 73 1010.3
20260904041603 62 0 0.0 0.0 0.00 0.00 0.00 73 1010.2
20260904041403 62 0 0.0 0.0 0.00 0.00 0.00 73 1010.2
20260904041203 63 0 0.0 0.0 0.00 0.00 0.00 73 1010.2
20260904041003 63 0 0.0 0.0 0.00 0.00 0.00 73 1010.1
20260904040803 63 0 0.0 0.0 0.00 0.00 0.00 72 1010.2
20260904040603 63 0 0.0 0.0 0.00 0.00 0.00 72 1010.2
20260904040403 63 0 0.0 0.0 0.00 0.00 0.00 72 1010.1
20260904040203 63 0 0.0 0.0 0.00 0.00 0.00 72 1010.1
20260904040003 63 0 0.0 0.0 0.00 0.00 0.00 71 1010.1
20260904035803 63 0 0.0 0.0 0.00 0.00 0.00 71 1010.0
20260904035624 64 0 0.0 0.0 0.00 0.00 0.00 71 1010.0
20260904035403 64 0 0.0 0.0 0.00 0.00 0.00 71 1010.0
20260904035224 64 0 0.0 0.0 0.00 0.00 0.00 71 1010.0
20260904035003 64 0 0.0 0.0 0.00 0.00 0.00 71 1010.0
20260904034804 64 0 0.0 0.0 0.00 0.00 0.00 71 1010.0
20260904034624 64 0 0.0 0.0 0.00 0.00 0.00 70 1010.0
20260904034424 64 0 0.0 0.0 0.00 0.00 0.00 69 1009.9
20260904034203 64 0 0.0 0.0 0.00 0.00 0.00 70 1009.9
20260904034003 65 0 0.0 0.0 0.00 0.00 0.00 70 1009.9
20260904033804 65 0 0.0 0.0 0.00 0.00 0.00 70 1009.9
20260904033604 65 0 0.0 0.0 0.00 0.00 0.00 70 1009.9
20260904033403 65 0 0.0 0.0 0.00 0.00 0.00 69 1009.9
20260904033203 65 0 0.0 0.0 0.00 0.00 0.00 69 1009.8
20260904033003 65 0 0.0 0.0 0.00 0.00 0.00 69 1009.8
20260904032803 65 0 0.0 0.0 0.00 0.00 0.00 69 1009.8
20260904032603 65 0 0.0 0.0 0.00 0.00 0.00 68 1009.7
20260904032403 65 0 0.0 0.0 0.00 0.00 0.00 68 1009.7
20260904032225 66 321 0.0 1.0 0.00 0.00 0.00 68 1009.7
20260904032003 66 321 0.0 1.0 0.00 0.00 0.00 68 1009.6
20260904031803 66 321 0.0 1.0 0.00 0.00 0.00 68 1009.6
20260904031603 66 321 0.0 1.0 0.00 0.00 0.00 68 1009.6
20260904031404 66 321 0.0 1.0 0.00 0.00 0.00 68 1009.6
20260904031204 66 343 0.0 1.0 0.00 0.00 0.00 68 1009.5
20260904031003 66 343 0.0 1.0 0.00 0.00 0.00 68 1009.5
20260904030803 66 343 0.0 1.0 0.00 0.00 0.00 68 1009.4
20260904030603 66 343 0.0 1.0 0.00 0.00 0.00 67 1009.4
20260904030404 66 343 0.0 1.0 0.00 0.00 0.00 67 1009.4
20260904030203 66 0 0.0 0.0 0.00 0.00 0.00 67 1009.4
20260904030004 66 0 0.0 0.0 0.00 0.00 0.00 67 1009.4
20260904025803 67 359 0.0 1.0 0.00 0.00 0.00 66 1009.4
20260904025624 67 359 0.0 1.0 0.00 0.00 0.00 66 1009.4
20260904025403 67 317 0.0 2.0 0.00 0.00 0.00 66 1009.4
20260904025204 67 318 0.0 2.0 0.00 0.00 0.00 66 1009.3
20260904025025 67 318 0.0 2.0 0.00 0.00 0.00 66 1009.3
20260904024824 67 322 0.0 2.0 0.00 0.00 0.00 66 1009.3
20260904024603 67 342 0.0 5.0 0.00 0.00 0.00 66 1009.3
20260904024403 67 343 1.0 5.0 0.00 0.00 0.00 66 1009.3
20260904024204 68 341 1.0 5.0 0.00 0.00 0.00 65 1009.3
20260904024004 68 337 1.0 5.0 0.00 0.00 0.00 65 1009.3
20260904023803 68 334 1.0 5.0 0.00 0.00 0.00 65 1009.3
20260904023604 68 325 1.0 4.0 0.00 0.00 0.00 65 1009.3
20260904023403 68 321 0.0 3.0 0.00 0.00 0.00 64 1009.3
20260904023203 68 305 0.0 4.0 0.00 0.00 0.00 64 1009.3
20260904023004 68 306 0.0 4.0 0.00 0.00 0.00 64 1009.2
20260904022803 68 303 1.0 4.0 0.00 0.00 0.00 63 1009.2
20260904022603 69 300 1.0 4.0 0.00 0.00 0.00 63 1009.3
20260904022403 69 300 1.0 4.0 0.00 0.00 0.00 63 1009.3
20260904022203 69 306 1.0 5.0 0.00 0.00 0.00 63 1009.2
20260904022003 69 306 1.0 5.0 0.00 0.00 0.00 62 1009.3
20260904021803 69 309 1.0 5.0 0.00 0.00 0.00 62 1009.3
20260904021604 70 313 1.0 5.0 0.00 0.00 0.00 62 1009.3
20260904021403 70 304 1.0 5.0 0.00 0.00 0.00 61 1009.3
20260904021203 70 297 1.0 4.0 0.00 0.00 0.00 61 1009.3
20260904021003 70 292 1.0 4.0 0.00 0.00 0.00 60 1009.3
20260904020804 70 294 1.0 5.0 0.00 0.00 0.00 60 1009.3
20260904020603 70 294 2.0 5.0 0.00 0.00 0.00 60 1009.3
20260904020404 71 294 2.0 5.0 0.00 0.00 0.00 59 1009.2
20260904020203 71 293 3.0 6.0 0.00 0.00 0.00 59 1009.2
20260904020005 71 295 3.0 6.0 0.00 0.00 0.00 59 1009.2
20260904015803 71 296 3.0 6.0 0.00 0.00 0.00 58 1009.3
20260904015604 71 298 3.0 6.0 0.00 0.00 0.00 58 1009.3
20260904015404 72 298 3.0 6.0 0.00 0.00 0.00 57 1009.3
20260904015203 72 300 3.0 6.0 0.00 0.00 0.00 56 1009.4
20260904015003 72 296 3.0 7.0 0.00 0.00 0.00 55 1009.4
20260904014803 73 296 3.0 7.0 0.00 0.00 0.00 55 1009.3
20260904014604 73 293 3.0 7.0 0.00 0.00 0.00 54 1009.3
20260904014404 73 294 3.0 7.0 0.00 0.00 0.00 54 1009.3
20260904014203 73 291 2.0 7.0 0.00 0.00 0.00 53 1009.3
20260904014024 74 295 2.0 8.0 0.00 0.00 0.00 53 1009.3
20260904013803 74 293 3.0 8.0 0.00 0.00 0.00 52 1009.3
20260904013603 74 294 3.0 8.0 0.00 0.00 0.00 53 1009.3
20260904013424 74 293 3.0 8.0 0.00 0.00 0.00 52 1009.2
20260904013203 74 296 3.0 8.0 0.00 0.00 0.00 52 1009.2
20260904013003 74 297 3.0 7.0 0.00 0.00 0.00 51 1009.2
20260904012803 74 297 4.0 8.0 0.00 0.00 0.00 51 1009.2
20260904012624 74 295 4.0 9.0 0.00 0.00 0.00 51 1009.2
20260904012403 74 295 4.0 9.0 0.00 0.00 0.00 51 1009.1
20260904012203 74 292 5.0 9.0 0.00 0.00 0.00 50 1009.1
20260904012004 74 290 5.0 9.0 0.00 0.00 0.00 49 1009.1
20260904011803 75 289 4.0 9.0 0.00 0.00 0.00 49 1009.1
20260904011604 75 290 4.0 9.0 0.00 0.00 0.00 49 1009.1
20260904011403 75 292 4.0 8.0 0.00 0.00 0.00 48 1009.1
20260904011203 76 294 4.0 8.0 0.00 0.00 0.00 47 1009.1
20260904011003 76 297 3.0 8.0 0.00 0.00 0.00 47 1009.1
20260904010804 76 300 3.0 8.0 0.00 0.00 0.00 46 1009.1
20260904010604 76 305 3.0 8.0 0.00 0.00 0.00 45 1009.1
20260904010403 77 303 3.0 8.0 0.00 0.00 0.00 44 1009.1
20260904010203 77 302 3.0 8.0 0.00 0.00 0.00 43 1009.1
20260904010003 77 302 3.0 8.0 0.00 0.00 0.00 43 1009.0
20260904005803 77 297 3.0 8.0 0.00 0.00 0.00 43 1009.1
20260904005603 77 293 4.0 9.0 0.00 0.00 0.00 43 1009.0
20260904005403 77 296 4.0 9.0 0.00 0.00 0.00 44 1009.0
20260904005203 77 295 4.0 9.0 0.00 0.00 0.00 43 1009.0
20260904005003 77 295 4.0 9.0 0.00 0.00 0.00 43 1009.0
20260904004804 78 299 3.0 9.0 0.00 0.00 0.00 42 1009.0
20260904004603 78 299 3.0 8.0 0.00 0.00 0.00 42 1009.0
20260904004403 78 295 3.0 8.0 0.00 0.00 0.00 41 1009.0
20260904004224 78 293 3.0 8.0 0.00 0.00 0.00 41 1009.0
20260904004004 78 290 3.0 8.0 0.00 0.00 0.00 40 1009.0
20260904003803 78 288 4.0 8.0 0.00 0.00 0.00 41 1009.0
20260904003604 78 288 4.0 8.0 0.00 0.00 0.00 41 1009.0
20260904003403 78 284 4.0 8.0 0.00 0.00 0.00 41 1009.1
20260904003203 78 287 4.0 8.0 0.00 0.00 0.00 40 1009.1
20260904003003 78 287 4.0 8.0 0.00 0.00 0.00 40 1009.1
20260904002804 78 288 3.0 8.0 0.00 0.00 0.00 40 1009.1
20260904002603 78 288 3.0 8.0 0.00 0.00 0.00 39 1009.1
20260904002425 79 293 3.0 8.0 0.00 0.00 0.00 39 1009.1
20260904002203 79 299 2.0 7.0 0.00 0.00 0.00 38 1009.1
20260904002003 79 305 3.0 7.0 0.00 0.00 0.00 38 1009.1
20260904001824 79 308 3.0 7.0 0.00 0.00 0.00 38 1009.1
20260904001603 79 310 3.0 7.0 0.00 0.00 0.00 38 1009.1
20260904001404 79 306 3.0 7.0 0.00 0.00 0.00 38 1009.1
20260904001204 79 304 3.0 7.0 0.00 0.00 0.00 38 1009.1
20260904001003 79 301 2.0 7.0 0.00 0.00 0.00 37 1009.1
20260904000803 79 292 3.0 6.0 0.00 0.00 0.00 35 1009.2
20260904000603 79 290 3.0 6.0 0.00 0.00 0.00 36 1009.2
20260904000403 79 286 2.0 6.0 0.00 0.00 0.00 36 1009.2
20260904000226 79 289 2.0 6.0 0.00 0.00 0.00 37 1009.2
20260904000024 79 292 3.0 7.0 0.00 0.00 0.00 35 1009.3
20260903235824 79 293 3.0 8.0 0.00 0.00 0.00 36 1009.3
20260903235603 79 295 3.0 8.0 0.00 0.00 0.00 35 1009.2
20260903235403 79 296 3.0 8.0 0.00 0.00 0.00 36 1009.3
20260903235203 79 289 3.0 8.0 0.00 0.00 0.00 37 1009.3
20260903235003 79 283 3.0 8.0 0.00 0.00 0.00 36 1009.3
20260903234803 79 274 2.0 7.0 0.00 0.00 0.00 33 1009.3
20260903234603 79 277 2.0 7.0 0.00 0.00 0.00 34 1009.4
20260903234403 79 267 2.0 7.0 0.00 0.00 0.00 35 1009.4
20260903234204 79 270 2.0 7.0 0.00 0.00 0.00 35 1009.4
20260903234003 79 279 2.0 7.0 0.00 0.00 0.00 34 1009.3
20260903233803 79 282 3.0 9.0 0.00 0.00 0.00 34 1009.4
20260903233624 79 279 3.0 9.0 0.00 0.00 0.00 34 1009.5
20260903233403 79 288 3.0 9.0 0.00 0.00 0.00 35 1009.4
20260903233203 79 292 3.0 9.0 0.00 0.00 0.00 35 1009.4
20260903233003 79 289 3.0 9.0 0.00 0.00 0.00 34 1009.4
20260903232803 79 290 3.0 9.0 0.00 0.00 0.00 34 1009.4
20260903232604 79 292 3.0 9.0 0.00 0.00 0.00 32 1009.5
20260903232403 79 283 3.0 9.0 0.00 0.00 0.00 30 1009.5
20260903232225 80 282 3.0 9.0 0.00 0.00 0.00 31 1009.5
20260903232003 79 287 3.0 9.0 0.00 0.00 0.00 31 1009.5
20260903231804 80 286 3.0 8.0 0.00 0.00 0.00 31 1009.6
20260903231603 80 285 2.0 7.0 0.00 0.00 0.00 31 1009.6
20260903231404 80 299 3.0 7.0 0.00 0.00 0.00 31 1009.6
20260903231204 80 297 3.0 7.0 0.00 0.00 0.00 32 1009.6
20260903231003 80 290 3.0 8.0 0.00 0.00 0.00 31 1009.6
20260903230825 80 290 3.0 8.0 0.00 0.00 0.00 31 1009.6
20260903230603 79 289 4.0 8.0 0.00 0.00 0.00 32 1009.6
20260903230403 79 287 3.0 8.0 0.00 0.00 0.00 31 1009.7
20260903230225 79 286 3.0 8.0 0.00 0.00 0.00 31 1009.7
20260903230003 80 291 3.0 7.0 0.00 0.00 0.00 30 1009.7
20260903225803 79 291 3.0 6.0 0.00 0.00 0.00 30 1009.8
20260903225603 79 289 3.0 6.0 0.00 0.00 0.00 31 1009.8
20260903225403 79 289 3.0 10.0 0.00 0.00 0.00 31 1009.8
20260903225203 79 287 3.0 10.0 0.00 0.00 0.00 31 1009.8
20260903225003 79 287 3.0 10.0 0.00 0.00 0.00 31 1009.8
20260903224803 79 283 3.0 10.0 0.00 0.00 0.00 30 1009.7
20260903224603 79 284 4.0 10.0 0.00 0.00 0.00 30 1009.8
20260903224404 79 287 4.0 8.0 0.00 0.00 0.00 30 1009.8
20260903224224 79 289 4.0 8.0 0.00 0.00 0.00 30 1009.8
20260903224003 79 285 3.0 8.0 0.00 0.00 0.00 31 1009.8
20260903223804 79 282 3.0 8.0 0.00 0.00 0.00 30 1009.8
20260903223603 79 283 3.0 8.0 0.00 0.00 0.00 31 1009.9
20260903223403 79 275 3.0 7.0 0.00 0.00 0.00 30 1009.9
20260903223203 79 278 3.0 7.0 0.00 0.00 0.00 31 1009.9
20260903223003 79 282 3.0 7.0 0.00 0.00 0.00 30 1010.0
20260903222803 79 289 3.0 6.0 0.00 0.00 0.00 30 1010.0
20260903222603 79 291 4.0 8.0 0.00 0.00 0.00 30 1010.0
20260903222404 79 294 3.0 8.0 0.00 0.00 0.00 31 1010.0
20260903222203 79 295 3.0 10.0 0.00 0.00 0.00 30 1010.1
20260903222004 79 300 4.0 10.0 0.00 0.00 0.00 31 1010.0
20260903221804 79 305 3.0 10.0 0.00 0.00 0.00 31 1010.0
20260903221604 78 310 3.0 10.0 0.00 0.00 0.00 31 1010.0
20260903221404 78 308 3.0 10.0 0.00 0.00 0.00 31 1010.1
20260903221203 79 309 3.0 8.0 0.00 0.00 0.00 31 1010.1
20260903221004 79 302 3.0 8.0 0.00 0.00 0.00 31 1010.1
20260903220803 79 291 3.0 8.0 0.00 0.00 0.00 31 1010.1
20260903220604 79 280 2.0 7.0 0.00 0.00 0.00 31 1010.1
20260903220403 79 279 3.0 8.0 0.00 0.00 0.00 30 1010.2
20260903220203 79 283 3.0 10.0 0.00 0.00 0.00 30 1010.2
20260903220024 79 282 3.0 10.0 0.00 0.00 0.00 31 1010.3
20260903215824 79 282 3.0 10.0 0.00 0.00 0.00 32 1010.2
20260903215603 79 284 3.0 10.0 0.00 0.00 0.00 32 1010.3
20260903215425 79 276 2.0 10.0 0.00 0.00 0.00 32 1010.3
20260903215203 79 270 2.0 7.0 0.00 0.00 0.00 32 1010.4
20260903215003 79 277 2.0 10.0 0.00 0.00 0.00 32 1010.4
20260903214803 79 272 3.0 10.0 0.00 0.00 0.00 31 1010.4
20260903214603 79 275 3.0 10.0 0.00 0.00 0.00 31 1010.4
20260903214424 79 283 3.0 10.0 0.00 0.00 0.00 33 1010.4
20260903214203 79 270 3.0 10.0 0.00 0.00 0.00 33 1010.4
20260903214003 78 262 3.0 7.0 0.00 0.00 0.00 34 1010.5
20260903213804 78 260 3.0 7.0 0.00 0.00 0.00 33 1010.5
20260903213603 78 260 3.0 8.0 0.00 0.00 0.00 32 1010.6
20260903213403 78 255 3.0 8.0 0.00 0.00 0.00 31 1010.6
20260903213204 78 267 3.0 8.0 0.00 0.00 0.00 32 1010.6
20260903213003 78 283 3.0 8.0 0.00 0.00 0.00 33 1010.6
20260903212803 78 290 3.0 8.0 0.00 0.00 0.00 32 1010.6
20260903212624 78 292 4.0 8.0 0.00 0.00 0.00 33 1010.6
20260903212403 78 294 4.0 9.0 0.00 0.00 0.00 33 1010.6
20260903212203 78 293 4.0 9.0 0.00 0.00 0.00 34 1010.6
20260903212003 78 277 3.0 9.0 0.00 0.00 0.00 34 1010.7
20260903211803 78 272 3.0 9.0 0.00 0.00 0.00 33 1010.6
20260903211603 78 266 3.0 9.0 0.00 0.00 0.00 33 1010.6
20260903211403 78 269 3.0 7.0 0.00 0.00 0.00 33 1010.6
20260903211204 78 273 3.0 7.0 0.00 0.00 0.00 32 1010.8
20260903211003 78 284 3.0 9.0 0.00 0.00 0.00 34 1010.8
20260903210803 78 288 3.0 9.0 0.00 0.00 0.00 34 1010.8
20260903210603 78 289 3.0 9.0 0.00 0.00 0.00 34 1010.8
20260903210404 78 286 2.0 9.0 0.00 0.00 0.00 33 1010.8
20260903210204 78 288 2.0 9.0 0.00 0.00 0.00 33 1010.8
20260903210003 78 293 2.0 8.0 0.00 0.00 0.00 35 1010.8
20260903205803 78 292 2.0 8.0 0.00 0.00 0.00 34 1010.8
20260903205624 77 289 3.0 8.0 0.00 0.00 0.00 34 1010.8
20260903205404 77 288 3.0 8.0 0.00 0.00 0.00 33 1010.8
20260903205203 77 276 3.0 8.0 0.00 0.00 0.00 34 1010.8
20260903205003 77 281 3.0 9.0 0.00 0.00 0.00 33 1010.8
20260903204803 77 284 3.0 10.0 0.00 0.00 0.00 34 1010.8
20260903204603 77 286 4.0 10.0 0.00 0.00 0.00 33 1010.8
20260903204404 77 287 4.0 11.0 0.00 0.00 0.00 33 1010.8
20260903204203 77 295 4.0 11.0 0.00 0.00 0.00 35 1010.9
20260903204003 77 297 4.0 11.0 0.00 0.00 0.00 35 1010.9
20260903203803 77 298 4.0 11.0 0.00 0.00 0.00 35 1010.9
20260903203603 77 301 4.0 11.0 0.00 0.00 0.00 34 1010.9
20260903203403 77 301 3.0 7.0 0.00 0.00 0.00 32 1010.8
20260903203204 77 301 3.0 7.0 0.00 0.00 0.00 31 1010.9
20260903203004 77 298 3.0 7.0 0.00 0.00 0.00 31 1010.9
20260903202803 77 292 3.0 7.0 0.00 0.00 0.00 29 1010.9
20260903202603 77 291 2.0 7.0 0.00 0.00 0.00 29 1010.9
20260903202403 77 296 2.0 7.0 0.00 0.00 0.00 30 1010.9
20260903202224 77 294 2.0 7.0 0.00 0.00 0.00 30 1010.9
20260903202003 77 293 2.0 7.0 0.00 0.00 0.00 29 1011.0
20260903201824 77 309 2.0 7.0 0.00 0.00 0.00 29 1011.0
20260903201604 76 305 2.0 7.0 0.00 0.00 0.00 29 1011.0
20260903201403 76 302 3.0 7.0 0.00 0.00 0.00 30 1011.0
20260903201204 76 302 3.0 7.0 0.00 0.00 0.00 28 1011.0
20260903201003 76 305 3.0 7.0 0.00 0.00 0.00 30 1011.0
20260903200825 76 300 2.0 7.0 0.00 0.00 0.00 30 1011.1
20260903200624 77 280 2.0 7.0 0.00 0.00 0.00 30 1011.1
20260903200403 77 267 2.0 6.0 0.00 0.00 0.00 30 1011.2
20260903200204 76 247 2.0 6.0 0.00 0.00 0.00 31 1011.1
20260903200003 76 233 2.0 7.0 0.00 0.00 0.00 29 1011.1
20260903195803 76 243 2.0 7.0 0.00 0.00 0.00 28 1011.2
20260903195603 76 247 2.0 7.0 0.00 0.00 0.00 29 1011.2
20260903195424 76 244 2.0 7.0 0.00 0.00 0.00 29 1011.3
20260903195203 76 257 2.0 7.0 0.00 0.00 0.00 29 1011.2
20260903195003 76 267 2.0 8.0 0.00 0.00 0.00 30 1011.3
20260903194824 76 273 3.0 8.0 0.00 0.00 0.00 30 1011.3
20260903194603 75 283 3.0 9.0 0.00 0.00 0.00 31 1011.4
20260903194403 75 285 3.0 9.0 0.00 0.00 0.00 32 1011.4
20260903194204 75 290 3.0 9.0 0.00 0.00 0.00 30 1011.3
20260903194003 75 292 3.0 9.0 0.00 0.00 0.00 31 1011.5
20260903193803 75 293 2.0 7.0 0.00 0.00 0.00 30 1011.5
20260903193603 75 294 2.0 7.0 0.00 0.00 0.00 30 1011.5
20260903193424 75 298 3.0 9.0 0.00 0.00 0.00 30 1011.5
20260903193203 75 297 3.0 9.0 0.00 0.00 0.00 30 1011.6
20260903193003 75 299 4.0 9.0 0.00 0.00 0.00 28 1011.6
20260903192803 74 300 4.0 9.0 0.00 0.00 0.00 31 1011.7
20260903192603 75 301 3.0 9.0 0.00 0.00 0.00 29 1011.7
20260903192403 75 288 2.0 7.0 0.00 0.00 0.00 29 1011.7
20260903192203 75 255 2.0 7.0 0.00 0.00 0.00 30 1011.8
20260903192003 74 168 1.0 7.0 0.00 0.00 0.00 29 1011.8
20260903191804 74 169 2.0 7.0 0.00 0.00 0.00 30 1011.8
20260903191603 74 194 2.0 7.0 0.00 0.00 0.00 29 1011.9
20260903191403 74 253 2.0 6.0 0.00 0.00 0.00 28 1011.9
20260903191204 74 288 2.0 6.0 0.00 0.00 0.00 30 1011.9
20260903191003 73 293 2.0 6.0 0.00 0.00 0.00 30 1011.9
20260903190803 73 291 3.0 6.0 0.00 0.00 0.00 30 1012.0
20260903190604 73 294 3.0 6.0 0.00 0.00 0.00 30 1012.0
20260903190403 73 292 3.0 7.0 0.00 0.00 0.00 30 1012.0
20260903190204 73 293 3.0 7.0 0.00 0.00 0.00 30 1012.0
20260903190003 73 294 3.0 7.0 0.00 0.00 0.00 31 1012.0
20260903185803 73 289 3.0 7.0 0.00 0.00 0.00 33 1012.1
20260903185603 73 279 3.0 7.0 0.00 0.00 0.00 31 1012.1
20260903185403 73 280 3.0 8.0 0.00 0.00 0.00 31 1012.2
20260903185203 73 280 3.0 8.0 0.00 0.00 0.00 31 1012.1
20260903185003 73 276 3.0 8.0 0.00 0.00 0.00 32 1012.2
20260903184803 72 278 3.0 8.0 0.00 0.00 0.00 31 1012.2
20260903184603 73 286 3.0 8.0 0.00 0.00 0.00 32 1012.3
20260903184403 73 285 2.0 8.0 0.00 0.00 0.00 32 1012.2
20260903184203 72 276 2.0 8.0 0.00 0.00 0.00 32 1012.3
20260903184003 72 281 2.0 8.0 0.00 0.00 0.00 31 1012.3
20260903183803 72 289 2.0 8.0 0.00 0.00 0.00 33 1012.3
20260903183624 72 290 2.0 7.0 0.00 0.00 0.00 33 1012.3
20260903183425 72 292 3.0 8.0 0.00 0.00 0.00 34 1012.3
20260903183224 72 298 3.0 8.0 0.00 0.00 0.00 33 1012.3
20260903183003 72 298 3.0 8.0 0.00 0.00 0.00 34 1012.4
20260903182803 72 296 3.0 8.0 0.00 0.00 0.00 35 1012.4
20260903182603 72 291 2.0 8.0 0.00 0.00 0.00 35 1012.4
20260903182403 71 290 1.0 7.0 0.00 0.00 0.00 36 1012.3
20260903182203 71 284 1.0 7.0 0.00 0.00 0.00 35 1012.4
20260903182003 71 287 2.0 7.0 0.00 0.00 0.00 36 1012.4
20260903181804 71 290 1.0 5.0 0.00 0.00 0.00 36 1012.4
20260903181603 71 299 1.0 6.0 0.00 0.00 0.00 37 1012.4
20260903181403 71 295 2.0 8.0 0.00 0.00 0.00 38 1012.4
20260903181203 70 296 2.0 8.0 0.00 0.00 0.00 39 1012.4
20260903181003 70 294 2.0 8.0 0.00 0.00 0.00 38 1012.4
20260903180803 70 290 2.0 8.0 0.00 0.00 0.00 37 1012.4
20260903180603 71 287 3.0 8.0 0.00 0.00 0.00 37 1012.4
20260903180403 71 291 2.0 6.0 0.00 0.00 0.00 38 1012.4
20260903180225 70 290 2.0 5.0 0.00 0.00 0.00 39 1012.3
20260903180024 70 292 3.0 5.0 0.00 0.00 0.00 39 1012.4
20260903175803 70 292 2.0 5.0 0.00 0.00 0.00 38 1012.4
20260903175603 71 295 2.0 5.0 0.00 0.00 0.00 38 1012.4
20260903175403 71 286 2.0 5.0 0.00 0.00 0.00 38 1012.4
20260903175203 71 274 2.0 5.0 0.00 0.00 0.00 39 1012.4
20260903175024 71 277 2.0 5.0 0.00 0.00 0.00 39 1012.4
20260903174825 70 280 2.0 5.0 0.00 0.00 0.00 38 1012.4
20260903174603 70 282 3.0 8.0 0.00 0.00 0.00 37 1012.4
20260903174403 70 283 2.0 8.0 0.00 0.00 0.00 37 1012.4
20260903174203 70 296 2.0 8.0 0.00 0.00 0.00 38 1012.5
20260903174003 70 292 2.0 8.0 0.00 0.00 0.00 36 1012.4
20260903173824 70 293 1.0 8.0 0.00 0.00 0.00 36 1012.4
20260903173603 70 262 1.0 6.0 0.00 0.00 0.00 37 1012.3
20260903173424 70 280 1.0 6.0 0.00 0.00 0.00 37 1012.4
20260903173203 70 275 1.0 7.0 0.00 0.00 0.00 38 1012.3
20260903173024 70 278 1.0 7.0 0.00 0.00 0.00 38 1012.4
20260903172803 70 282 1.0 7.0 0.00 0.00 0.00 38 1012.3
20260903172603 69 289 2.0 7.0 0.00 0.00 0.00 39 1012.3
20260903172403 69 286 2.0 7.0 0.00 0.00 0.00 39 1012.3
20260903172203 69 290 2.0 7.0 0.00 0.00 0.00 41 1012.3
20260903172024 69 292 2.0 7.0 0.00 0.00 0.00 40 1012.3
20260903171804 69 295 2.0 7.0 0.00 0.00 0.00 39 1012.3
20260903171603 68 295 2.0 7.0 0.00 0.00 0.00 39 1012.3
20260903171403 68 296 2.0 6.0 0.00 0.00 0.00 41 1012.3
20260903171203 69 292 2.0 6.0 0.00 0.00 0.00 41 1012.3
20260903171025 68 291 2.0 6.0 0.00 0.00 0.00 40 1012.2
20260903170803 68 291 2.0 6.0 0.00 0.00 0.00 42 1012.3
20260903170603 68 292 2.0 6.0 0.00 0.00 0.00 41 1012.3
20260903170403 68 292 1.0 6.0 0.00 0.00 0.00 40 1012.2
20260903170203 68 294 1.0 6.0 0.00 0.00 0.00 40 1012.3
20260903170003 68 297 1.0 6.0 0.00 0.00 0.00 39 1012.2
20260903165803 68 297 2.0 6.0 0.00 0.00 0.00 39 1012.2
20260903165624 68 292 2.0 6.0 0.00 0.00 0.00 38 1012.3
20260903165403 67 292 2.0 6.0 0.00 0.00 0.00 39 1012.2
20260903165204 67 292 2.0 5.0 0.00 0.00 0.00 40 1012.2
20260903165003 68 292 3.0 7.0 0.00 0.00 0.00 40 1012.1
20260903164824 67 290 2.0 7.0 0.00 0.00 0.00 41 1012.2
20260903164603 67 295 2.0 7.0 0.00 0.00 0.00 41 1012.1
20260903164403 67 293 2.0 7.0 0.00 0.00 0.00 42 1012.1
20260903164203 67 294 2.0 7.0 0.00 0.00 0.00 43 1012.1
20260903164003 68 292 1.0 5.0 0.00 0.00 0.00 44 1012.1
20260903163803 67 295 1.0 5.0 0.00 0.00 0.00 46 1012.1
20260903163603 67 286 1.0 5.0 0.00 0.00 0.00 45 1012.1
20260903163403 67 287 1.0 5.0 0.00 0.00 0.00 45 1012.1
20260903163204 67 293 1.0 5.0 0.00 0.00 0.00 45 1012.1
20260903163003 67 296 1.0 5.0 0.00 0.00 0.00 46 1012.1
20260903162804 67 295 1.0 5.0 0.00 0.00 0.00 45 1012.1
20260903162603 67 302 2.0 4.0 0.00 0.00 0.00 44 1012.1
20260903162403 66 301 2.0 4.0 0.00 0.00 0.00 45 1012.1
20260903162203 66 299 2.0 4.0 0.00 0.00 0.00 45 1012.1
20260903162003 66 297 2.0 4.0 0.00 0.00 0.00 45 1012.1
20260903161824 66 297 2.0 4.0 0.00 0.00 0.00 45 1012.1
20260903161604 66 295 2.0 4.0 0.00 0.00 0.00 45 1012.0
20260903161403 66 296 1.0 4.0 0.00 0.00 0.00 45 1012.1
20260903161204 66 296 1.0 4.0 0.00 0.00 0.00 45 1012.1
20260903161004 66 302 1.0 5.0 0.00 0.00 0.00 47 1012.0
20260903160804 66 304 1.0 5.0 0.00 0.00 0.00 47 1012.0
20260903160603 66 306 1.0 5.0 0.00 0.00 0.00 48 1012.0
20260903160403 66 297 1.0 5.0 0.00 0.00 0.00 49 1012.0